Location: Juniper Campground
(35.7953°N, 106.2814°W)
Time: 04:52:40
(UTC-07:00)

Envisat - Pass Details

Date: 30 August 2018
Orbit: 764 x 766 km, 98.2° (Epoch: 19 November)

Event Time Altitude Azimuth Distance (km) Brightness Sun altitude
Rises 20:23:53 0° 172° (S) 3,207 6.0 -10.4°
Reaches altitude 10° 20:26:11 10° 175° (S) 2,285 5.2 -10.8°
Maximum altitude 20:31:12 69° 258° (WSW) 817 3.3 -11.8°
Drops below altitude 10° 20:36:15 10° 342° (NNW) 2,301 6.0 -12.7°
Sets 20:38:35 0° 345° (NNW) 3,232 6.8 -13.2°
